Augusta, Maine, United States (04330)
Lat: 44.31N, Lon: 69.78W
Wx Zone: MEZ021
Local Info
Past Weather Observations for Saturday, October 18, 2014

NOTE: This archive is for the closest National Weather Service station to Augusta. Information may differ from the station used for current weather conditions.

Click here for Long-term Archive

Time Weather Temperature Dewpoint Humidity Pressure Winds Precip Visibility
23:53
Clear
50°F / 10°C 48°F / 9°C 94% 29.53 in
(1000 mb)
SSW 3.5 mph
(SSW 6 kph)
- 10SM
22:53
Clear
52°F / 11°C 48°F / 9°C 88% 29.5 in
(999 mb)
Calm - 10SM
21:53
Clear
54°F / 12°C 48°F / 9°C 82% 29.5 in
(999 mb)
Calm - 10SM
20:53
Clear
54°F / 12°C 54°F / 12°C 100% 29.5 in
(999 mb)
W 4.6 mph
(W 7 kph)
- 10SM
19:53
Clear
55°F / 13°C 54°F / 12°C 94% 29.5 in
(999 mb)
W 6.9 mph
(W 11 kph)
- 10SM
18:53
Clear
55°F / 13°C 54°F / 12°C 94% 29.5 in
(999 mb)
SSE 5.8 mph
(SSE 9 kph)
- 9SM
17:53
Overcast
57°F / 14°C 55°F / 13°C 94% 29.5 in
(999 mb)
SSE 4.6 mph
(SSE 7 kph)
0.07 in
(1.78 mm)
10SM
17:16
Overcast
Light Rain
59°F / 15°C 57°F / 14°C 94% 29.5 in
(999 mb)
S 5.8 mph
(S 9 kph)
0.06 in
(1.52 mm)
4SM
16:53
Overcast
Thunder Storms
59°F / 15°C 57°F / 14°C 94% 29.47 in
(998 mb)
S 8.1 mph
(S 13 kph)
0.09 in
(2.29 mm)
3SM
16:16
Overcast
63°F / 17°C 55°F / 13°C 77% 29.47 in
(998 mb)
S 4.6 mph
(S 7 kph)
- 10SM
15:53
Overcast
63°F / 17°C 55°F / 13°C 77% 29.47 in
(998 mb)
SSE 6.9 mph
(SSE 11 kph)
- 10SM
14:53
Overcast
64°F / 18°C 52°F / 11°C 64% 29.47 in
(998 mb)
SW 5.8 mph
(SW 9 kph)
- 10SM
13:53
Mostly Cloudy
66°F / 19°C 54°F / 12°C 64% 29.5 in
(999 mb)
SW 10.4 mph
(SW 17 kph)
- 10SM
12:53
Clear
66°F / 19°C 55°F / 13°C 68% 29.5 in
(999 mb)
S 8.1 mph
(S 13 kph)
- 10SM
11:53
Clear
66°F / 19°C 54°F / 12°C 64% 29.5 in
(999 mb)
S 11.5 mph
(S 19 kph)
- 10SM
10:53
Clear
66°F / 19°C 55°F / 13°C 68% 29.53 in
(1000 mb)
S 8.1 mph
(S 13 kph)
- 10SM
09:53
Partly Cloudy
63°F / 17°C 55°F / 13°C 77% 29.56 in
(1001 mb)
SSE 6.9 mph
(SSE 11 kph)
- 10SM
09:03
Partly Cloudy
57°F / 14°C 55°F / 13°C 94% 29.59 in
(1002 mb)
S 4.6 mph
(S 7 kph)
- 10SM
08:53
Mostly Cloudy
57°F / 14°C 54°F / 12°C 88% 29.59 in
(1002 mb)
S 5.8 mph
(S 9 kph)
- 9SM
07:53
Overcast
Fog And Mist
57°F / 14°C 55°F / 13°C 94% 29.59 in
(1002 mb)
SW 6.9 mph
(SW 11 kph)
- 6SM
07:40
Overcast
Fog And Mist
57°F / 14°C 55°F / 13°C 94% 29.59 in
(1002 mb)
SW 6.9 mph
(SW 11 kph)
- 6SM
06:53
Overcast
Fog And Mist
55°F / 13°C 54°F / 12°C 94% 29.59 in
(1002 mb)
SW 9.2 mph
(SW 15 kph)
- 4SM
06:42
Overcast
Fog And Mist
55°F / 13°C 54°F / 12°C 94% 29.59 in
(1002 mb)
SW 9.2 mph
(SW 15 kph)
- 3SM
06:18
Overcast
Fog And Mist
55°F / 13°C 54°F / 12°C 94% 29.59 in
(1002 mb)
Variable 6.9 mph
(Variable 11 kph)
- 1 1/2SM
06:09
Overcast
Fog And Mist
54°F / 12°C 54°F / 12°C 100% 29.59 in
(1002 mb)
S 5.8 mph
(S 9 kph)
- 2SM
05:53
Obscured
Fog And Mist
54°F / 12°C 54°F / 12°C 100% 29.59 in
(1002 mb)
Variable 4.6 mph
(Variable 7 kph)
- 1SM
05:23
Overcast
Fog And Mist
54°F / 12°C 54°F / 12°C 100% 29.59 in
(1002 mb)
SSE 5.8 mph
(SSE 9 kph)
- 3/4SM
04:56
Mostly Cloudy
Fog And Mist
52°F / 11°C 52°F / 11°C 100% 29.59 in
(1002 mb)
S 3.5 mph
(S 6 kph)
- 2 1/2SM
04:53
Partly Cloudy
Fog And Mist
52°F / 11°C 52°F / 11°C 100% 29.59 in
(1002 mb)
S 3.5 mph
(S 6 kph)
- 3SM
04:35
Partly Cloudy
Fog And Mist
52°F / 11°C 52°F / 11°C 100% 29.59 in
(1002 mb)
Calm - 4SM
03:53
Clear
Fog And Mist
52°F / 11°C 52°F / 11°C 100% 29.59 in
(1002 mb)
S 4.6 mph
(S 7 kph)
- 6SM
02:53
Clear
52°F / 11°C 52°F / 11°C 100% 29.59 in
(1002 mb)
SSE 6.9 mph
(SSE 11 kph)
- 7SM
01:53
Clear
52°F / 11°C 52°F / 11°C 100% 29.59 in
(1002 mb)
S 5.8 mph
(S 9 kph)
- 8SM
00:53
Clear
54°F / 12°C 52°F / 11°C 94% 29.62 in
(1003 mb)
S 5.8 mph
(S 9 kph)
- 9SM
Time Weather Temperature Dewpoint Humidity Pressure Winds Precip Visibility


Weather for websites

WeatherForYou.com, LLC is not responsible for any damages or problems caused by this service. Current weather conditions are obtained from the closest station including government and personal stations which may have varying degrees of accuracy. Weather forecasts are derived from the NOAA NDFD. Like all things, this site belongs to Jesus Christ... He just trusts me to maintain it. If you have any questions or comments email webmaster@weatherforyou.com

Copyright © 2014, WeatherForYou.com LLC. All rights reserved.